星链-35693(STARLINK-35693)

导读

STARLINK-35693是美国太空探索技术公司(SpaceX)星链计划的卫星,于2025年11月15日发射,归属星链星座组网,星链计划旨在构建全球卫星互联网,为全球多地提供高速低延迟互联网服务,该卫星入轨后将进一步扩充星链星座规模,提升全球网络覆盖能力。

基本信息
目录编号:
66490
目录名称:
STARLINK-35693
国际标识:
2025-263F
轨道中心:
EARTH
卫星名称:
星链-35693
卫星全名:
星链-35693(STARLINK-35693)
卫星状态:
在轨 (已飞行294 天)
发射日期:
2025-11-15 UTC
国别 :
美国 (US)
星等 :
--
轨道信息
数据来源 国际轨道数据
星历时间: 2026-09-05T20:20:48+0800
5小时前
查看轨道信息
半长轴: 6861.176km
偏心率: 0.0001384
轨道倾角: 43.003°
近地点辐角 258.858°
升交点赤经 54.896°
平近点角 101.212°
近地点: 482.089km
远地点: 483.989km
周期: 94.267分钟
每日圈数: 15.275835
详细信息
固有亮度:
5
最大亮度:
2.5
卫星平台:
Starlink V1.0
覆盖范围:
全球
运营商:
太空探索技术公司
运营商所在国:
美国
制造商(研发单位):
太空探索技术公司
制造商所在国:
美国
使用方式:
暂无
卫星简介
Starlink 计划是 SpaceX 推出的全球卫星互联网项目,通过发射低轨道卫星,为全球尤其是偏远地区提供高速、低延迟的互联网服务。自 2019 年起,Starlink 已部署数千颗卫星,旨在缩小全球数字鸿沟,推动互联网普及。该项目还为军事、航空等行业提供通信支持,带来广泛经济效益。
2D轨道图
3D轨道图
轨道高度分析图
轨道倾角分析图
轨道综合分析图
查看轨道综合分析图
交会数据列表
事件ID 空间交会对象 最接近时刻(TCA) 交会距离 交会风险概率(CRP) 交会风险指数(CRI) 操作
CDM_260908-040906-643006-649021
2026-09-08T
04:09:37+0000
0.902 km
远距离
2.143208E-5 中风险 0.62
CDM_260906-175604-489006-649022
OBJECT M (44890)
2026-09-06T
17:56:03+0000
1.865 km
极远距离
2.451311E-6 低风险 0.43
CDM_260908-023506-643006-649021
2026-09-08T
02:35:28+0000
2.192 km
极远距离
1.382478E-6 低风险 0.38
CDM_260908-054306-643006-649021
2026-09-08T
05:43:46+0000
2.968 km
极远距离
8.486917E-7 极低风险 0.34